星链-1962 (STARLINK-1962 )

导读 | 豆包AI

STARLINK-1962是美国SpaceX公司星链星座的第一代卫星,于2021年2月4日发射入轨。它运行在地球低轨道,属于星链V1.5批次,配备相控阵天线与氪离子推进系统,可提供高速低延迟宽带服务。作为全球最大低轨卫星星座的组成部分,它承担着覆盖全球互联网接入的任务,退役后会主动再入大气层销毁,减少空间碎片影响。

基本信息
目录编号:
47563
目录名称:
STARLINK-1962
国际标识:
2021-009R
轨道中心:
EARTH
卫星名称:
星链-1962
卫星全名:
星链-1962 (STARLINK-1962 )
卫星状态:
在轨 (已飞行1864 天)
发射日期:
2021-02-04 UTC
国别 :
美国 (US)
星等 :
--
轨道信息
数据来源 国际轨道数据
星历时间: 2026-03-14T08:00:02+0800
11小时前
查看轨道信息
半长轴: 6756.247km
偏心率: 0.0007733
轨道倾角: 53.045°
近地点辐角 101.999°
升交点赤经 335.481°
平近点角 136.413°
近地点: 372.885km
远地点: 383.335km
周期: 92.112分钟
每日圈数: 15.63308
详细信息
固有亮度:
5
最大亮度:
2.5
卫星平台:
Starlink V1.0
覆盖范围:
全球
运营商:
太空探索技术公司
运营商所在国:
美国
制造商(研发单位):
太空探索技术公司
制造商所在国:
美国
使用方式:
暂无
卫星简介
星链(Starlink)计划是由太空探索技术公司(SpaceX)提出的一个巨型低轨卫星互联网星座项目,计划在2019年至2024年间在太空搭建由约1.2万颗卫星组成的“星链”网络,其中1584颗将部署在地球上空550千米处的近地轨道,并从2020年开始工作。该卫星仍在工作。
2D轨道图
3D轨道图
轨道高度分析图
轨道倾角分析图
轨道综合分析图
查看轨道综合分析图